| time (UTC) | temp F | wind direction | speed MPH | gust MPH | rain 1hr in | rain 24hr in | rain mn in | humidity % | barometer mb |
| 20260505171023 | 76 | 296 | 3.0 | 8.0 | 0.00 | 0.00 | 0.00 | 80 | 1007.7 |
| 20260505170523 | 76 | 293 | 3.0 | 7.0 | 0.00 | 0.00 | 0.00 | 80 | 1007.7 |
| 20260505165523 | 76 | 296 | 2.0 | 6.0 | 0.00 | 0.00 | 0.00 | 81 | 1007.6 |
| 20260505165023 | 76 | 213 | 2.0 | 6.0 | 0.00 | 0.00 | 0.00 | 81 | 1007.6 |
| 20260505164523 | 75 | 140 | 4.0 | 6.0 | 0.00 | 0.00 | 0.00 | 81 | 1007.6 |
| 20260505163523 | 75 | 180 | 1.0 | 5.0 | 0.00 | 0.00 | 0.00 | 81 | 1007.7 |
| 20260505163023 | 75 | 172 | 3.0 | 8.0 | 0.00 | 0.00 | 0.00 | 81 | 1007.7 |
| 20260505162523 | 75 | 105 | 6.0 | 8.0 | 0.00 | 0.00 | 0.00 | 81 | 1007.7 |
| 20260505161523 | 74 | 110 | 2.0 | 4.0 | 0.00 | 0.00 | 0.00 | 81 | 1007.8 |
| 20260505153022 | 73 | 261 | 1.0 | 5.0 | 0.00 | 0.00 | 0.00 | 81 | 1007.9 |
| 20260505152522 | 73 | 103 | 2.0 | 5.0 | 0.00 | 0.00 | 0.00 | 82 | 1007.9 |
| 20260505152023 | 73 | 206 | 3.0 | 5.0 | 0.00 | 0.00 | 0.00 | 82 | 1007.7 |
| 20260505151522 | 73 | 209 | 1.0 | 5.0 | 0.00 | 0.00 | 0.00 | 82 | 1007.6 |
| 20260505151021 | 73 | 177 | 1.0 | 6.0 | 0.00 | 0.00 | 0.00 | 82 | 1007.6 |
| 20260505150521 | 73 | 199 | 1.0 | 6.0 | 0.00 | 0.00 | 0.00 | 82 | 1007.5 |
| 20260505140521 | 73 | 254 | 3.0 | 8.0 | 0.00 | 0.00 | 0.00 | 82 | 1007.3 |
| 20260505125019 | 72 | 111 | 3.0 | 6.0 | 0.00 | 0.00 | 0.00 | 82 | 1006.7 |
| 20260505124519 | 72 | 115 | 2.0 | 4.0 | 0.00 | 0.00 | 0.00 | 82 | 1006.7 |
| 20260505124020 | 72 | 212 | 2.0 | 5.0 | 0.00 | 0.00 | 0.00 | 82 | 1006.7 |
| 20260505123520 | 72 | 240 | 1.0 | 7.0 | 0.00 | 0.00 | 0.00 | 82 | 1006.6 |
| 20260505123019 | 72 | 219 | 5.0 | 7.0 | 0.00 | 0.00 | 0.00 | 82 | 1006.5 |
| 20260505122519 | 72 | 142 | 3.0 | 7.0 | 0.00 | 0.00 | 0.00 | 82 | 1006.4 |
| 20260505122019 | 72 | 180 | 2.0 | 7.0 | 0.00 | 0.00 | 0.00 | 82 | 1006.3 |
| 20260505121519 | 72 | 234 | 2.0 | 6.0 | 0.00 | 0.00 | 0.00 | 82 | 1006.4 |
| 20260505121019 | 72 | 128 | 2.0 | 7.0 | 0.00 | 0.00 | 0.00 | 82 | 1006.4 |
| 20260505120519 | 72 | 171 | 4.0 | 7.0 | 0.00 | 0.00 | 0.00 | 82 | 1006.3 |
| 20260505120019 | 72 | 164 | 1.0 | 6.0 | 0.00 | 0.00 | 0.00 | 82 | 1006.4 |
| 20260505115519 | 72 | 260 | 2.0 | 8.0 | 0.00 | 0.00 | 0.00 | 82 | 1006.4 |
| 20260505115019 | 72 | 211 | 2.0 | 8.0 | 0.00 | 0.00 | 0.00 | 82 | 1006.3 |
| 20260505114519 | 72 | 215 | 3.0 | 13.0 | 0.00 | 0.00 | 0.00 | 82 | 1006.2 |
| 20260505114019 | 72 | 169 | 4.0 | 13.0 | 0.00 | 0.00 | 0.00 | 82 | 1006.1 |
| 20260505113519 | 72 | 228 | 4.0 | 6.0 | 0.00 | 0.00 | 0.00 | 82 | 1006.1 |
| 20260505113019 | 72 | 258 | 0.0 | 4.0 | 0.00 | 0.00 | 0.00 | 82 | 1006.3 |
| 20260505112519 | 72 | 241 | 2.0 | 7.0 | 0.00 | 0.00 | 0.00 | 82 | 1006.3 |
| 20260505112019 | 72 | 202 | 2.0 | 7.0 | 0.00 | 0.00 | 0.00 | 82 | 1006.2 |
| 20260505111519 | 72 | 217 | 4.0 | 7.0 | 0.00 | 0.00 | 0.00 | 82 | 1006.2 |
| 20260505111019 | 72 | 217 | 3.0 | 7.0 | 0.00 | 0.00 | 0.00 | 82 | 1006.3 |
| 20260505110519 | 72 | 197 | 2.0 | 9.0 | 0.00 | 0.00 | 0.00 | 82 | 1006.3 |
| 20260505101518 | 71 | 125 | 3.0 | 7.0 | 0.00 | 0.00 | 0.00 | 82 | 1006.4 |
| 20260505101018 | 71 | 182 | 3.0 | 8.0 | 0.00 | 0.00 | 0.00 | 82 | 1006.7 |
| 20260505100518 | 71 | 329 | 2.0 | 8.0 | 0.00 | 0.00 | 0.00 | 82 | 1006.7 |
| 20260505100019 | 71 | 217 | 2.0 | 7.0 | 0.00 | 0.00 | 0.00 | 82 | 1006.5 |
| 20260505095518 | 71 | 360 | 5.0 | 7.0 | 0.00 | 0.00 | 0.00 | 82 | 1006.4 |
| 20260505095018 | 71 | 140 | 2.0 | 4.0 | 0.00 | 0.00 | 0.00 | 82 | 1006.4 |
| 20260505094518 | 71 | 213 | 3.0 | 5.0 | 0.00 | 0.00 | 0.00 | 82 | 1006.6 |
| 20260505094018 | 71 | 202 | 4.0 | 6.0 | 0.00 | 0.00 | 0.00 | 82 | 1006.5 |
| 20260505093518 | 71 | 115 | 6.0 | 8.0 | 0.00 | 0.00 | 0.00 | 82 | 1006.5 |
| 20260505093018 | 71 | 311 | 1.0 | 8.0 | 0.00 | 0.00 | 0.00 | 82 | 1006.7 |
| 20260505092518 | 71 | 233 | 3.0 | 7.0 | 0.00 | 0.00 | 0.00 | 82 | 1006.6 |
| 20260505092018 | 71 | 207 | 2.0 | 8.0 | 0.00 | 0.00 | 0.00 | 81 | 1006.4 |
| 20260505091518 | 71 | 229 | 4.0 | 8.0 | 0.00 | 0.00 | 0.00 | 81 | 1006.5 |
| 20260505091018 | 71 | 217 | 3.0 | 6.0 | 0.00 | 0.00 | 0.00 | 81 | 1006.5 |
| 20260505090518 | 71 | 194 | 0.0 | 5.0 | 0.00 | 0.00 | 0.00 | 81 | 1006.7 |
| 20260505090017 | 71 | 173 | 2.0 | 6.0 | 0.00 | 0.00 | 0.00 | 81 | 1006.6 |
| 20260505085518 | 71 | 241 | 1.0 | 6.0 | 0.00 | 0.00 | 0.00 | 81 | 1006.8 |
| 20260505085018 | 71 | 221 | 3.0 | 4.0 | 0.00 | 0.00 | 0.00 | 81 | 1006.7 |
| 20260505084017 | 71 | 190 | 2.0 | 5.0 | 0.00 | 0.00 | 0.00 | 81 | 1006.6 |
| 20260505083518 | 71 | 287 | 2.0 | 5.0 | 0.00 | 0.00 | 0.00 | 81 | 1006.8 |
| 20260505083017 | 71 | 150 | 3.0 | 12.0 | 0.00 | 0.00 | 0.00 | 81 | 1007.0 |
| 20260505082517 | 71 | 326 | 4.0 | 12.0 | 0.00 | 0.00 | 0.00 | 81 | 1007.2 |
| 20260505082017 | 71 | 55 | 9.0 | 9.0 | 0.00 | 0.00 | 0.00 | 81 | 1007.1 |
| 20260505081517 | 71 | 177 | 5.0 | 13.0 | 0.00 | 0.00 | 0.00 | 81 | 1007.1 |
| 20260505081017 | 71 | 193 | 1.0 | 13.0 | 0.00 | 0.00 | 0.00 | 81 | 1007.2 |
| 20260505080517 | 72 | 187 | 1.0 | 4.0 | 0.00 | 0.00 | 0.00 | 81 | 1007.3 |
| 20260505075517 | 72 | 223 | 4.0 | 11.0 | 0.00 | 0.00 | 0.00 | 81 | 1007.3 |
| 20260505075017 | 72 | 168 | 4.0 | 11.0 | 0.00 | 0.00 | 0.00 | 81 | 1007.3 |
| 20260505074517 | 72 | 208 | 3.0 | 11.0 | 0.00 | 0.00 | 0.00 | 81 | 1007.3 |
| 20260505074017 | 72 | 302 | 2.0 | 9.0 | 0.00 | 0.00 | 0.00 | 81 | 1007.3 |
| 20260505073517 | 72 | 147 | 4.0 | 9.0 | 0.00 | 0.00 | 0.00 | 81 | 1007.4 |
| 20260505073017 | 72 | 192 | 3.0 | 10.0 | 0.00 | 0.00 | 0.00 | 81 | 1007.4 |
| 20260505072517 | 72 | 169 | 6.0 | 10.0 | 0.00 | 0.00 | 0.00 | 81 | 1007.5 |
| 20260505072017 | 72 | 215 | 1.0 | 5.0 | 0.00 | 0.00 | 0.00 | 81 | 1007.6 |
| 20260505071517 | 72 | 278 | 3.0 | 13.0 | 0.00 | 0.00 | 0.00 | 81 | 1007.7 |
| 20260505070516 | 72 | 180 | 1.0 | 11.0 | 0.00 | 0.00 | 0.00 | 81 | 1007.7 |
| 20260505065516 | 72 | 272 | 2.0 | 10.0 | 0.00 | 0.00 | 0.00 | 81 | 1007.8 |
| 20260505065016 | 72 | 298 | 3.0 | 11.0 | 0.00 | 0.00 | 0.00 | 81 | 1007.9 |
| 20260505064516 | 72 | 142 | 5.0 | 11.0 | 0.00 | 0.00 | 0.00 | 81 | 1008.0 |
| 20260505064016 | 72 | 165 | 4.0 | 10.0 | 0.00 | 0.00 | 0.00 | 81 | 1008.1 |
| 20260505063517 | 72 | 205 | 7.0 | 10.0 | 0.00 | 0.00 | 0.00 | 81 | 1008.1 |
| 20260505063016 | 72 | 254 | 4.0 | 10.0 | 0.00 | 0.00 | 0.00 | 81 | 1008.3 |
| 20260505062016 | 72 | 126 | 3.0 | 7.0 | 0.00 | 0.00 | 0.00 | 80 | 1008.4 |
| 20260505061516 | 72 | 165 | 4.0 | 8.0 | 0.00 | 0.00 | 0.00 | 80 | 1008.4 |
| 20260505061016 | 72 | 245 | 3.0 | 8.0 | 0.00 | 0.00 | 0.00 | 80 | 1008.5 |
| 20260505060516 | 72 | 159 | 2.0 | 6.0 | 0.00 | 0.00 | 0.00 | 80 | 1008.4 |
| 20260505060016 | 72 | 234 | 4.0 | 6.0 | 0.00 | 0.00 | 0.00 | 80 | 1008.6 |
| 20260505055516 | 72 | 191 | 2.0 | 6.0 | 0.00 | 0.00 | 0.00 | 80 | 1008.5 |
| 20260505055016 | 72 | 296 | 2.0 | 6.0 | 0.00 | 0.00 | 0.00 | 80 | 1008.5 |
| 20260505054516 | 72 | 117 | 0.0 | 6.0 | 0.00 | 0.00 | 0.00 | 80 | 1008.5 |
| 20260505054016 | 72 | 120 | 1.0 | 6.0 | 0.00 | 0.00 | 0.00 | 80 | 1008.4 |
| 20260505053016 | 72 | 230 | 2.0 | 6.0 | 0.00 | 0.00 | 0.00 | 80 | 1008.3 |
| 20260505052516 | 72 | 325 | 0.0 | 6.0 | 0.00 | 0.00 | 0.00 | 80 | 1008.3 |
| 20260505052016 | 72 | 121 | 3.0 | 10.0 | 0.00 | 0.00 | 0.00 | 80 | 1008.4 |
| 20260505051015 | 72 | 263 | 0.0 | 8.0 | 0.00 | 0.00 | 0.00 | 80 | 1008.2 |
| 20260505050516 | 72 | 157 | 8.0 | 13.0 | 0.00 | 0.00 | 0.00 | 80 | 1008.4 |
| 20260505041015 | 74 | 220 | 4.0 | 13.0 | 0.00 | 0.00 | 0.00 | 78 | 1008.2 |
| 20260505040515 | 74 | 194 | 7.0 | 9.0 | 0.00 | 0.00 | 0.00 | 77 | 1008.3 |
| 20260505040015 | 74 | 121 | 2.0 | 9.0 | 0.00 | 0.00 | 0.00 | 77 | 1008.3 |
| 20260505035515 | 74 | 51 | 2.0 | 9.0 | 0.00 | 0.00 | 0.00 | 77 | 1008.3 |
| 20260505035015 | 74 | 132 | 3.0 | 7.0 | 0.00 | 0.00 | 0.00 | 77 | 1008.2 |
| 20260505034515 | 74 | 132 | 7.0 | 7.0 | 0.00 | 0.00 | 0.00 | 77 | 1008.2 |
| 20260505033515 | 75 | 182 | 4.0 | 7.0 | 0.00 | 0.00 | 0.00 | 76 | 1008.2 |
| 20260505033014 | 75 | 149 | 0.0 | 4.0 | 0.00 | 0.00 | 0.00 | 76 | 1008.3 |
| 20260505032014 | 75 | 157 | 1.0 | 7.0 | 0.00 | 0.00 | 0.00 | 76 | 1008.2 |
| 20260505031515 | 75 | 269 | 3.0 | 8.0 | 0.00 | 0.00 | 0.00 | 75 | 1008.1 |
| 20260505031014 | 75 | 152 | 1.0 | 8.0 | 0.00 | 0.00 | 0.00 | 75 | 1008.2 |
| 20260505030514 | 75 | 120 | 5.0 | 7.0 | 0.00 | 0.00 | 0.00 | 75 | 1008.2 |
| 20260505030014 | 75 | 188 | 1.0 | 7.0 | 0.00 | 0.00 | 0.00 | 75 | 1008.3 |
| 20260505025515 | 75 | 244 | 2.0 | 5.0 | 0.00 | 0.00 | 0.00 | 74 | 1008.2 |
| 20260505025014 | 75 | 149 | 2.0 | 9.0 | 0.00 | 0.00 | 0.00 | 74 | 1008.2 |
| 20260505024514 | 76 | 156 | 2.0 | 9.0 | 0.00 | 0.00 | 0.00 | 74 | 1008.2 |
| 20260505024014 | 76 | 152 | 1.0 | 3.0 | 0.00 | 0.00 | 0.00 | 73 | 1008.2 |
| 20260505023514 | 76 | 142 | 1.0 | 5.0 | 0.00 | 0.00 | 0.00 | 73 | 1008.0 |
| 20260505023014 | 76 | 133 | 2.0 | 7.0 | 0.00 | 0.00 | 0.00 | 73 | 1008.0 |
| 20260505022514 | 76 | 269 | 2.0 | 7.0 | 0.00 | 0.00 | 0.00 | 73 | 1008.0 |
| 20260505022014 | 76 | 134 | 2.0 | 5.0 | 0.00 | 0.00 | 0.00 | 73 | 1008.0 |
| 20260505020514 | 77 | 213 | 2.0 | 8.0 | 0.00 | 0.00 | 0.00 | 71 | 1007.9 |
| 20260505020014 | 77 | 181 | 3.0 | 8.0 | 0.00 | 0.00 | 0.00 | 71 | 1007.8 |
| 20260505015514 | 77 | 159 | 2.0 | 5.0 | 0.00 | 0.00 | 0.00 | 71 | 1007.9 |
| 20260505015014 | 77 | 235 | 1.0 | 7.0 | 0.00 | 0.00 | 0.00 | 70 | 1007.7 |
| 20260505014514 | 77 | 134 | 4.0 | 7.0 | 0.00 | 0.00 | 0.00 | 70 | 1007.7 |
| 20260505013514 | 78 | 134 | 1.0 | 6.0 | 0.00 | 0.00 | 0.00 | 69 | 1007.8 |
| 20260505013013 | 78 | 135 | 5.0 | 6.0 | 0.00 | 0.00 | 0.00 | 68 | 1007.7 |
| 20260505012513 | 78 | 120 | 4.0 | 9.0 | 0.00 | 0.00 | 0.00 | 68 | 1007.7 |
| 20260505012013 | 78 | 146 | 3.0 | 9.0 | 0.00 | 0.00 | 0.00 | 68 | 1007.7 |
| 20260505011014 | 79 | 140 | 5.0 | 11.0 | 0.00 | 0.00 | 0.00 | 66 | 1007.5 |
| 20260505010014 | 79 | 234 | 1.0 | 6.0 | 0.00 | 0.00 | 0.00 | 65 | 1007.4 |
| 20260505005513 | 80 | 169 | 6.0 | 6.0 | 0.00 | 0.00 | 0.00 | 65 | 1007.4 |
| 20260505005013 | 80 | 175 | 2.0 | 6.0 | 0.00 | 0.00 | 0.00 | 64 | 1007.4 |
| 20260505004513 | 80 | 215 | 5.0 | 7.0 | 0.00 | 0.00 | 0.00 | 64 | 1007.4 |
| 20260505003513 | 81 | 121 | 4.0 | 7.0 | 0.00 | 0.00 | 0.00 | 62 | 1007.3 |
| 20260505003013 | 81 | 214 | 2.0 | 7.0 | 0.00 | 0.00 | 0.00 | 62 | 1007.3 |
| 20260505002513 | 81 | 291 | 7.0 | 11.0 | 0.00 | 0.00 | 0.00 | 62 | 1007.3 |
| 20260505002013 | 81 | 165 | 2.0 | 11.0 | 0.00 | 0.00 | 0.00 | 61 | 1007.2 |
| 20260505000513 | 82 | 311 | 1.0 | 11.0 | 0.00 | 0.00 | 0.00 | 60 | 1007.6 |
| 20260504235512 | 82 | 272 | 6.0 | 10.0 | 0.00 | 0.00 | 0.00 | 61 | 1007.5 |
| 20260504235012 | 82 | 125 | 8.0 | 10.0 | 0.00 | 0.00 | 0.00 | 61 | 1007.5 |
| 20260504234512 | 82 | 107 | 2.0 | 11.0 | 0.00 | 0.00 | 0.00 | 60 | 1007.6 |
| 20260504234013 | 82 | 145 | 3.0 | 11.0 | 0.00 | 0.00 | 0.00 | 60 | 1007.8 |
| 20260504232512 | 82 | 150 | 3.0 | 7.0 | 0.00 | 0.00 | 0.00 | 60 | 1007.8 |
| 20260504232012 | 82 | 250 | 2.0 | 7.0 | 0.00 | 0.00 | 0.00 | 60 | 1007.8 |
| 20260504231512 | 82 | 198 | 5.0 | 10.0 | 0.00 | 0.00 | 0.00 | 59 | 1007.8 |
| 20260504230512 | 82 | 70 | 2.0 | 11.0 | 0.00 | 0.00 | 0.00 | 59 | 1008.0 |
| 20260504230012 | 82 | 135 | 5.0 | 11.0 | 0.00 | 0.00 | 0.00 | 59 | 1008.1 |
| 20260504225512 | 83 | 297 | 5.0 | 11.0 | 0.00 | 0.00 | 0.00 | 59 | 1008.1 |
| 20260504225012 | 83 | 313 | 5.0 | 9.0 | 0.00 | 0.00 | 0.00 | 59 | 1008.1 |
| 20260504224512 | 83 | 215 | 5.0 | 7.0 | 0.00 | 0.00 | 0.00 | 59 | 1008.3 |
| 20260504224012 | 83 | 146 | 4.0 | 7.0 | 0.00 | 0.00 | 0.00 | 59 | 1008.2 |
| 20260504223512 | 83 | 113 | 2.0 | 4.0 | 0.00 | 0.00 | 0.00 | 59 | 1008.3 |
| 20260504223012 | 83 | 267 | 4.0 | 10.0 | 0.00 | 0.00 | 0.00 | 60 | 1008.4 |
| 20260504222512 | 83 | 233 | 7.0 | 10.0 | 0.00 | 0.00 | 0.00 | 59 | 1008.4 |
| 20260504221511 | 83 | 250 | 3.0 | 8.0 | 0.00 | 0.00 | 0.00 | 60 | 1008.5 |
| 20260504221012 | 83 | 213 | 3.0 | 9.0 | 0.00 | 0.00 | 0.00 | 60 | 1008.5 |
| 20260504220511 | 83 | 143 | 4.0 | 12.0 | 0.00 | 0.00 | 0.00 | 59 | 1008.5 |
| 20260504220012 | 83 | 115 | 3.0 | 12.0 | 0.00 | 0.00 | 0.00 | 60 | 1008.5 |
| 20260504215511 | 83 | 148 | 3.0 | 9.0 | 0.00 | 0.00 | 0.00 | 60 | 1008.7 |
| 20260504215011 | 83 | 288 | 4.0 | 6.0 | 0.00 | 0.00 | 0.00 | 61 | 1008.6 |
| 20260504214511 | 83 | 259 | 4.0 | 7.0 | 0.00 | 0.00 | 0.00 | 61 | 1008.7 |
| 20260504214011 | 82 | 209 | 5.0 | 7.0 | 0.00 | 0.00 | 0.00 | 60 | 1008.5 |
| 20260504213011 | 83 | 186 | 3.0 | 6.0 | 0.00 | 0.00 | 0.00 | 60 | 1008.9 |
| 20260504212511 | 83 | 265 | 2.0 | 8.0 | 0.00 | 0.00 | 0.00 | 60 | 1009.0 |
| 20260504212011 | 83 | 136 | 1.0 | 8.0 | 0.00 | 0.00 | 0.00 | 60 | 1009.0 |
| 20260504211511 | 83 | 176 | 2.0 | 8.0 | 0.00 | 0.00 | 0.00 | 60 | 1009.1 |
| 20260504211011 | 83 | 111 | 6.0 | 10.0 | 0.00 | 0.00 | 0.00 | 60 | 1009.2 |
| 20260504210011 | 83 | 115 | 7.0 | 9.0 | 0.00 | 0.00 | 0.00 | 59 | 1009.2 |
| 20260504205511 | 84 | 166 | 9.0 | 11.0 | 0.00 | 0.00 | 0.00 | 60 | 1009.4 |
| 20260504205010 | 83 | 126 | 11.0 | 11.0 | 0.00 | 0.00 | 0.00 | 60 | 1009.4 |
| 20260504204511 | 83 | 125 | 8.0 | 11.0 | 0.00 | 0.00 | 0.00 | 60 | 1009.4 |
| 20260504204010 | 84 | 131 | 2.0 | 11.0 | 0.00 | 0.00 | 0.00 | 59 | 1009.6 |
| 20260504203510 | 84 | 198 | 1.0 | 7.0 | 0.00 | 0.00 | 0.00 | 60 | 1009.7 |
| 20260504203010 | 84 | 108 | 3.0 | 7.0 | 0.00 | 0.00 | 0.00 | 61 | 1009.9 |
| 20260504202510 | 83 | 194 | 2.0 | 6.0 | 0.00 | 0.00 | 0.00 | 61 | 1010.0 |
| 20260504202010 | 83 | 291 | 4.0 | 8.0 | 0.00 | 0.00 | 0.00 | 61 | 1010.1 |
| 20260504201510 | 83 | 232 | 4.0 | 12.0 | 0.00 | 0.00 | 0.00 | 60 | 1010.1 |
| 20260504201010 | 83 | 231 | 8.0 | 12.0 | 0.00 | 0.00 | 0.00 | 61 | 1010.3 |
| 20260504200510 | 83 | 131 | 4.0 | 10.0 | 0.00 | 0.00 | 0.00 | 60 | 1010.3 |
| 20260504200010 | 83 | 238 | 2.0 | 8.0 | 0.00 | 0.00 | 0.00 | 61 | 1010.3 |
| 20260504195010 | 82 | 188 | 3.0 | 11.0 | 0.00 | 0.00 | 0.00 | 62 | 1010.6 |
| 20260504194509 | 82 | 266 | 2.0 | 9.0 | 0.00 | 0.00 | 0.00 | 61 | 1010.7 |
| 20260504194010 | 82 | 141 | 5.0 | 9.0 | 0.00 | 0.00 | 0.00 | 61 | 1010.8 |
| 20260504193509 | 81 | 123 | 3.0 | 10.0 | 0.00 | 0.00 | 0.00 | 62 | 1010.8 |
| 20260504193009 | 81 | 221 | 3.0 | 14.0 | 0.00 | 0.00 | 0.00 | 62 | 1010.8 |
| 20260504192510 | 81 | 227 | 4.0 | 14.0 | 0.00 | 0.00 | 0.00 | 62 | 1010.9 |
| 20260504191509 | 81 | 210 | 3.0 | 17.0 | 0.00 | 0.00 | 0.00 | 62 | 1011.2 |
| 20260504191009 | 81 | 216 | 2.0 | 10.0 | 0.00 | 0.00 | 0.00 | 63 | 1011.2 |
| 20260504190510 | 81 | 245 | 7.0 | 10.0 | 0.00 | 0.00 | 0.00 | 63 | 1011.1 |
| 20260504190009 | 81 | 211 | 2.0 | 8.0 | 0.00 | 0.00 | 0.00 | 63 | 1011.2 |
| 20260504185511 | 80 | 34 | 1.0 | 11.0 | 0.00 | 0.00 | 0.00 | 64 | 1011.2 |
| 20260504185009 | 80 | 264 | 2.0 | 11.0 | 0.00 | 0.00 | 0.00 | 64 | 1011.2 |
| 20260504184509 | 80 | 275 | 7.0 | 14.0 | 0.00 | 0.00 | 0.00 | 64 | 1011.4 |
| 20260504184009 | 80 | 269 | 8.0 | 14.0 | 0.00 | 0.00 | 0.00 | 64 | 1011.5 |
| 20260504183509 | 80 | 167 | 4.0 | 11.0 | 0.00 | 0.00 | 0.00 | 65 | 1011.6 |
| 20260504183009 | 80 | 290 | 5.0 | 14.0 | 0.00 | 0.00 | 0.00 | 64 | 1011.8 |
| 20260504182509 | 79 | 205 | 5.0 | 14.0 | 0.00 | 0.00 | 0.00 | 66 | 1011.8 |
| 20260504182009 | 79 | 163 | 2.0 | 9.0 | 0.00 | 0.00 | 0.00 | 66 | 1011.9 |
| 20260504181509 | 79 | 260 | 4.0 | 10.0 | 0.00 | 0.00 | 0.00 | 66 | 1012.0 |
| 20260504181008 | 78 | 198 | 1.0 | 10.0 | 0.00 | 0.00 | 0.00 | 66 | 1011.9 |
| 20260504180509 | 78 | 229 | 3.0 | 10.0 | 0.00 | 0.00 | 0.00 | 66 | 1011.9 |
| 20260504180008 | 78 | 212 | 3.0 | 10.0 | 0.00 | 0.00 | 0.00 | 67 | 1012.0 |
| 20260504175509 | 78 | 46 | 3.0 | 9.0 | 0.00 | 0.00 | 0.00 | 68 | 1012.2 |
| 20260504174510 | 77 | 300 | 2.0 | 7.0 | 0.00 | 0.00 | 0.00 | 68 | 1012.3 |
| 20260504174008 | 76 | 198 | 1.0 | 7.0 | 0.00 | 0.00 | 0.00 | 70 | 1012.7 |
| 20260504173508 | 76 | 271 | 3.0 | 7.0 | 0.00 | 0.00 | 0.00 | 70 | 1012.8 |
| 20260504172512 | 76 | 138 | 4.0 | 6.0 | 0.00 | 0.00 | 0.00 | 70 | 1012.9 |
| 20260504172008 | 76 | 232 | 3.0 | 9.0 | 0.00 | 0.00 | 0.00 | 70 | 1012.9 |
| 20260504171508 | 76 | 269 | 3.0 | 18.0 | 0.00 | 0.00 | 0.00 | 70 | 1013.0 |